Regional Weather Roundup
Issued by NWS

Home | Current Version | Previous Version | Graphics & Text | Print | Product List | Glossary On
Versions: 1 2 3 4 5 6 7 8 9 10 11 12 13 14 15 16 17 18 19 20 21 22 23 24 25 26 27 28 29 30 31 32 33 34 35 36 37 38 39 40 41 42 43 44 45 46 47 48 49 50
000
ASUS43 KLOT 021108
RWRIL

ILLINOIS REGIONAL WEATHER ROUNDUP
NATIONAL WEATHER SERVICE CHICAGO/ROMEOVILLE IL
600 AM CDT SUN AUG 02 2015

NOTE: "FAIR" INDICATES FEW OR NO CLOUDS BELOW 12,000 FEET WITH NO
SIGNIFICANT WEATHER AND/OR OBSTRUCTIONS TO VISIBILITY.

* THESE STATIONS ARE NOT UNDER NWS QUALITY CONTROL. THEY ALSO MAY NOT
  REPORT WEATHER SUCH AS PRECIPITATION OR FOG.

ILZ001-002-007-009-015-016-024-021200-
NORTHWEST ILLINOIS

CITY           SKY/WX    TMP DP  RH WIND       PRES   REMARKS
MOLINE         CLEAR     70  66  87 SW3       29.85F
STERLING*      CLEAR     68  64  88 W5        29.83S
SAVANNA*       CLEAR     72  69  90 S6        29.84S
$$

ILZ003-004-008-010-011-017-018-021200-
NORTH CENTRAL ILLINOIS

CITY           SKY/WX    TMP DP  RH WIND       PRES   REMARKS
ROCKFORD       MOCLDY    70  66  87 S9        29.85F
FREEPORT*      CLEAR     69  67  93 SW9G16    29.85S
ROCHELLE*      CLEAR     66  65  98 S5        29.87R
DE KALB*       PTCLDY    69  67  94 SW7       29.87S
PERU*          CLEAR     70  66  88 SW8       29.88S
$$

ILZ005-006-012>014-019>023-021200-
NORTHEAST ILLINOIS

CITY           SKY/WX    TMP DP  RH WIND       PRES   REMARKS
CHICAGO-OHARE  PTCLDY    72  67  84 SW8       29.85F
CHICAGO-MIDWAY PTCLDY    73  66  78 SW7       29.86F
AURORA         PTCLDY    69  65  86 SW5       29.88R
LANSING*       CLEAR     66  64  94 S7        29.89S
JOLIET*        CLEAR     69  67  93 S3        29.88S
WAUKEGAN       CLOUDY    73  69  87 VRB6      29.83S
DUPAGE AIRPORT CLEAR     68  65  90 S8        29.86F
KANKAKEE*      CLEAR     65  63  92 CALM      29.90F
WHEELING       MOCLDY    72  67  84 S7        29.86F
MORRIS*        CLEAR     68  65  92 S5        29.87S
ROMEOVILLE*    CLEAR     67  64  92 SW6       29.88S
NORTHERLY ISL    N/A     73  65  75 S5          N/A
$$

LMZ740>746-021200-
SOUTHERN LAKE MICHIGAN

STATION/POSITION SKY/WX   TEMP    WIND        PRES    VSBY  WAVE
                          AIR SEA DIR/SP/G                  HT/PER
                          (F)     (DEG/KT/KT) (MB)    (MI)  (FT/S)
HARRISON CRIB              74     250/ 19/ 24   N/A
BURNHAM HARBOR             73     230/  4/  8   N/A
CALUMET HARBOR             71     210/  5/  7   N/A
BURNS HARBOR               72     210/ 10/ 13 1012.5S
MICHIGAN CITY              71     180/ 10/ 11   N/A
MICHIGAN CITY 6N           72 73  230/ 10/ 14   N/A           2/ 3
ST. JOSEPH                 73 73  250/ 14/ 16   N/A           2/ 4
$$

ILZ025>027-034>036-040-047-049-050-058-095>099-021200-
WEST-CENTRAL ILLINOIS

CITY           SKY/WX    TMP DP  RH WIND       PRES   REMARKS
QUINCY         PTCLDY    68  66  93 S7        29.91S
GALESBURG*     CLEAR     64  63  97 S6        29.90S
MACOMB*        CLEAR     64  63  97 SW5       29.93S
JACKSONVILLE*  CLEAR     73  70  93 S6        29.92S
PITTSFIELD*    CLEAR     70  67  91 S5        29.93S
$$

ILZ028>032-037-038-041>044-048-051>054-059>061-021200-
CENTRAL ILLINOIS

CITY           SKY/WX    TMP DP  RH WIND       PRES   REMARKS
PONTIAC        CLEAR     69  66  90 S7        29.91S
BLOOMINGTON    CLEAR     67  64  90 SW12      29.93S
DECATUR        CLEAR     67  61  81 S5        29.94S
PEORIA         CLEAR     70  65  84 S7        29.90F
LACON*         CLEAR     71  66  84 SW6       29.88S
LINCOLN*       CLEAR     65  62  90 CALM      29.92S
SPRINGFIELD    CLEAR     71  67  87 SW7       29.92F
TAYLORVILLE    CLEAR     64  63  94 S5        29.94S
$$

ILZ033-039-045-046-055>057-062-063-021200-
EAST-CENTRAL ILLINOIS

CITY           SKY/WX    TMP DP  RH WIND       PRES   REMARKS
CHAMPAIGN      CLEAR     64  60  87 SW8       29.94S
DANVILLE*      CLEAR     61  60  97 S6        29.92R
RANTOUL*       CLEAR     67  62  85 SW7       29.93S
MATTOON        CLEAR     68  60  75 S5        29.94S
PARIS*         CLEAR     63  60  93 SW5       29.96R
$$

ILZ079-100>102-021200-
SOUTHWEST ILLINOIS

CITY           SKY/WX    TMP DP  RH WIND       PRES   REMARKS
ALTON          PTCLDY    68  67  96 CALM      29.95R
BELLEVILLE     PTCLDY    70  70 100 S3        29.94R
CAHOKIA*       PTCLDY    72  68  87 S3        29.94S
SPARTA*        PTCLDY    73  69  88 S5        29.96S
$$

ILZ064>066-069>071-074>076-080>082-084>086-088>090-092>094-021200-
SOUTH-CENTRAL ILLINOIS

CITY           SKY/WX    TMP DP  RH WIND       PRES   REMARKS
CARBONDALE     MOCLDY    68  66  93 CALM      29.96S
CAIRO*         PTCLDY    68  68  99 CALM      29.96S
EFFINGHAM*     CLEAR     64  60  87 CALM      29.97R
MARION         PTCLDY    68  64  88 CALM      29.97S
MT. VERNON     CLEAR     64  59  82 CALM      29.97R
CENTRALIA*     CLEAR     65  61  87 SW3       29.96R
SALEM*         CLEAR     67  63  87 CALM      29.96S
METROPOLIS*    PTCLDY    67  67 100 CALM      29.98R
$$

ILZ067-068-072-073-078-083-087-091-021200-
SOUTHEAST ILLINOIS

CITY           SKY/WX    TMP DP  RH WIND       PRES   REMARKS
LAWRENCEVILLE  CLEAR     64  62  93 CALM      29.97R
FLORA*         CLEAR     63  61  94 SW3       29.96S
FAIRFIELD*     CLEAR     65  64  97 CALM      29.95S
HARRISBURG*    PTCLDY    64  64 100 CALM      29.97F
ROBINSON*      CLEAR     61  60  96 CALM      29.97R
CARMI*         CLEAR     63  59  87 CALM      29.96S FOG
$$

ABBREVIATIONS USED IN REMARKS
   TC - TEMPERATURE IN CELSIUS
  WCI - WIND CHILL INDEX
   HX - HEAT INDEX
  VSB - VISIBILITY
$$



USA.gov is the U.S. government's official web portal to all federal, state and local government web resources and services.